Location: Hobi?a Gr?di?te
(45.4833°N, 22.7833°E)
Time: 06:27:54
(UTC+00:00)

Cosmos 2297 Rocket - Pass Details

Date: 28 January 2023
Orbit: 838 x 844 km, 71.0° (Epoch: 29 March)

Event Time Altitude Azimuth Distance (km) Brightness Sun altitude
Rises 16:17:50 0° 325° (NW) 3,403 5.6 -8.8°
Reaches altitude 10° 16:20:32 10° 315° (NW) 2,465 5.0 -9.2°
Maximum altitude 16:25:23 30° 256° (WSW) 1,454 4.4 -10.0°
Drops below altitude 10° 16:30:14 10° 196° (SSW) 2,452 5.1 -10.9°
Sets 16:32:55 0° 186° (S) 3,383 5.6 -11.3°
